Regional Weather Roundup
Issued by NWS Newport/Morehead, NC

Home | Current Version | Previous Version | Text Only | Print | Product List | Glossary On
Versions: 1 2 3 4 5 6 7 8 9 10 11 12 13 14 15 16 17 18 19 20 21 22 23 24 25 26 27 28 29 30 31 32 33 34 35 36 37 38 39 40 41 42 43 44 45 46 47 48 49 50
000
ASUS42 KMHX 300125
RWRMHX
WEATHER ROUNDUP FOR EASTERN NORTH CAROLINA
NATIONAL WEATHER SERVICE NEWPORT/MOREHEAD CITY NC
900 PM EDT MON AUG 29 2016

NOTE: "FAIR" INDICATES FEW OR NO CLOUDS BELOW 12,000 FEET
WITH NO SIGNIFICANT WEATHER AND/OR OBSTRUCTIONS TO VISIBILITY

NCZ015>017-031-032-045>047-102-103-300200-
NORTH COAST

CITY           SKY/WX    TMP DP  RH WIND       PRES   REMARKS
EDENTON        PTCLDY    75  67  74 N3        30.09R
ELIZABETH CITY PTCLDY    75  70  84 NE8       30.08S
KITTY HAWK     PTCLDY    78  71  80 CALM      30.06S
MANTEO         PTCLDY    78  70  78 NE9       30.07S

$$

NCZ045>047-081-094-103-104-300200-
CENTRAL COAST

CITY           SKY/WX    TMP DP  RH WIND       PRES   REMARKS
FRISCO         MOCLDY    80  76  87 NE10G17   30.04S

$$

NCZ095-097-098-100-101-300200-
SOUTHERN COAST

CITY           SKY/WX    TMP DP  RH WIND       PRES   REMARKS
BEAUFORT       CLOUDY    79  74  84 NE6       30.04S
CEDAR ISLAND   NOT AVBL
JACKSONVILLE   PTCLDY    77  73  87 N3        30.05F
PINEY ISLAND   NOT AVBL
WILMINGTON     CLEAR     74  72  93 CALM      30.06R


$$

NCZ011>013-027>030-043-044-078>080-089-090>093-098-300200-
COASTAL PLAIN

CITY           SKY/WX    TMP DP  RH WIND       PRES   REMARKS
AHOSKIE        PTCLDY    76  66  71 CALM      30.09R
CLINTON        MOCLDY    74  74 100 CALM      30.08R
ELIZABETHTOWN  CLOUDY    74  74 100 CALM      30.08R
GOLDSBORO      CLOUDY    77  77 100 CALM      30.06R
GREENVILLE     CLOUDY    79  73  83 CALM      30.09R
HAVELOCK       PTCLDY    79  74  84 NE9       30.06R
KENANSVILLE    PTCLDY    73  73 100 CALM      30.08R FOG
KINSTON        PTCLDY    77  75  94 NE3       30.08S
NEW BERN       PTCLDY    77  74  90 N5        30.07S
RICHLANDS      CLEAR     75  74  96 CALM      30.07S
ROCKY MOUNT    PTCLDY    79  74  84 CALM      30.08R
WASHINGTON     CLOUDY    77  73  89 NE3       30.07S
WHITEVILLE     DRIZZLE   76  72  88 CALM      30.06S

$$

AMZ130-135-150-152-154-156-158-170-250-252-270-ANZ085-086-088-633-658-670-300200-
MARINE OBSERVATIONS

STATION/POSITION TIME  TEMP    WIND        PRES    WAVE   SWELL
                       AIR SEA DIR/SP/G            HT/PER HT/PER
                 (UTC) (F)     (DEG/KT/KT) (MB)    (FT/S) (FT/S)
CHESAPEAKE LIGHT NOT AVBL
64 E VA BEACH    0050   80 81   50/ 12/ 14 1018.0    4/12   3/12
DUCK             0000   79 79              1017.7
2 E DUCK         0011      80                N/A     4/13   2/13
OREGON INLET     0000   79 81              1017.7
13E OREGON INLT  0000      80                N/A     5/13   5/13
HATTERAS CG      0000   81 84              1016.5
DIAMOND BUOY     0050   83 84   40/ 17/ 21 1016.2    7/13   5/13
CAPE LOOKOUT     0100   82      30/ 18/ 23 1016.8
BEAUFORT LAB     0000   81 82              1016.8
30 SE NEW RVR IN 0108   83 84   50/ 16/ 21 1016.9
30 SE NEW RVR IN 0025      84                N/A     5/ 5   2/12
27 SE WRIGHTSVLE 0108   82 84   10/ 10/ 16 1017.2
5 SE WRIGHTSVLE  0008   79 84  350/  8/ 12 1018.3
225 S CAPE HAT   0050   83 84  260/  8/  8 1016.0    4/12   5/12
41 SE CHARLESTON 0050   83 85   50/ 14/ 16 1016.5    4/ 9   3/ 9

$$




USA.gov is the U.S. government's official web portal to all federal, state and local government web resources and services.